When you browse on this site, cookies collect data to enhance your experience and personalize the content and advertising you see.
Visit our Privacy Policy to learn more. By continuing to use the site, you agree to this use of cookies and data.
  • In Hungary
  • List of Countries
  • For 7 days
  • Water Temperature
  • Weather Map
  • News
  • Weather Widgets
  • user-avatar
    Login

    Hourly Weather Kyzylsu

    Today, 15 December, Sunday

    Time Temperature Precipitation Wind Pressure Humidity
    00:00 -1°C° 0 mm 1 mps 731 mmHg 78%
    01:00 -1°C° 0 mm 1 mps 731 mmHg 77%
    02:00 -1°C° 0 mm 1 mps 731 mmHg 76%
    03:00 -1°C° 0 mm 1 mps 731 mmHg 76%
    04:00 -2°C° 0 mm 1 mps 731 mmHg 76%
    05:00 -3°C° 0 mm 1 mps 731 mmHg 79%
    06:00 -3°C° 0 mm 1 mps 731 mmHg 78%
    07:00 -3°C° 0 mm 1 mps 731 mmHg 77%
    08:00 -3°C° 0 mm 1 mps 731 mmHg 76%
    09:00 -2°C° 0 mm 1 mps 731 mmHg 70%
    10:00 0°C° 0 mm 1 mps 732 mmHg 64%
    11:00 +1°C° 0 mm 1 mps 732 mmHg 59%
    12:00 +2°C° 0 mm 1 mps 731 mmHg 58%
    13:00 +3°C° 0 mm 1 mps 731 mmHg 57%
    14:00 +3°C° 0 mm 1 mps 731 mmHg 56%
    15:00 +1°C° 0 mm 2 mps 731 mmHg 61%
    16:00 -1°C° 0 mm 2 mps 731 mmHg 66%
    17:00 -2°C° 0 mm 2 mps 731 mmHg 71%
    18:00 -3°C° 0 mm 2 mps 731 mmHg 71%
    19:00 -3°C° 0 mm 2 mps 731 mmHg 71%
    20:00 -3°C° 0 mm 2 mps 731 mmHg 71%
    21:00 -3°C° 0 mm 2 mps 731 mmHg 69%
    22:00 -3°C° 0 mm 2 mps 731 mmHg 67%
    23:00 -3°C° 0 mm 2 mps 731 mmHg 65%

    Tomorrow, 16 December, Monday

    Time Temperature Precipitation Wind Pressure Humidity
    00:00 -3°C° 0 mm 2 mps 731 mmHg 62%
    01:00 -3°C° 0 mm 2 mps 730 mmHg 59%
    02:00 -3°C° 0 mm 2 mps 730 mmHg 56%
    03:00 -3°C° 0 mm 2 mps 730 mmHg 54%
    04:00 -3°C° 0 mm 2 mps 730 mmHg 52%
    05:00 -3°C° 0 mm 2 mps 730 mmHg 50%
    06:00 -3°C° 0 mm 2 mps 730 mmHg 50%
    07:00 -3°C° 0 mm 2 mps 730 mmHg 49%
    08:00 -3°C° 0 mm 2 mps 730 mmHg 48%
    09:00 -1°C° 0 mm 2 mps 730 mmHg 46%
    10:00 +1°C° 0 mm 2 mps 730 mmHg 43%
    11:00 +4°C° 0 mm 1 mps 731 mmHg 41%
    12:00 +5°C° 0 mm 1 mps 730 mmHg 41%
    13:00 +6°C° 0 mm 1 mps 730 mmHg 40%
    14:00 +6°C° 0 mm 1 mps 729 mmHg 40%
    15:00 +5°C° 0 mm 1 mps 729 mmHg 45%
    16:00 +3°C° 0 mm 1 mps 729 mmHg 49%
    17:00 +1°C° 0 mm 1 mps 729 mmHg 54%
    18:00 -1°C° 0 mm 2 mps 729 mmHg 52%
    19:00 -1°C° 0 mm 2 mps 729 mmHg 51%
    20:00 -2°C° 0 mm 2 mps 729 mmHg 49%
    21:00 -2°C° 0 mm 2 mps 729 mmHg 47%
    22:00 -1°C° 0 mm 2 mps 729 mmHg 45%
    23:00 -1°C° 0 mm 2 mps 729 mmHg 42%

    Day after tomorrow, 17 December, Tuesday

    Time Temperature Precipitation Wind Pressure Humidity
    00:00 -1°C° 0 mm 2 mps 729 mmHg 40%
    01:00 -1°C° 0 mm 2 mps 729 mmHg 39%
    02:00 +1°C° 0 mm 1 mps 729 mmHg 37%
    03:00 -1°C° 0 mm 2 mps 729 mmHg 36%
    04:00 -1°C° 0 mm 2 mps 729 mmHg 35%
    05:00 -1°C° 0 mm 2 mps 729 mmHg 34%
    06:00 +1°C° 0 mm 2 mps 729 mmHg 34%
    07:00 +1°C° 0 mm 2 mps 729 mmHg 33%
    08:00 +1°C° 0 mm 2 mps 729 mmHg 33%
    09:00 +4°C° 0 mm 1 mps 729 mmHg 33%
    10:00 +6°C° 0 mm 1 mps 729 mmHg 32%
    11:00 +8°C° 0 mm 1 mps 729 mmHg 32%
    12:00 +8°C° 0 mm 1 mps 729 mmHg 33%
    13:00 +8°C° 0 mm 0 mps 728 mmHg 35%
    14:00 +9°C° 0 mm 0 mps 728 mmHg 36%
    15:00 +7°C° 0 mm 0 mps 728 mmHg 38%
    16:00 +7°C° 0 mm 1 mps 728 mmHg 39%
    17:00 +5°C° 0 mm 1 mps 727 mmHg 41%
    18:00 +4°C° 0 mm 2 mps 727 mmHg 42%
    19:00 +4°C° 0 mm 2 mps 727 mmHg 43%
    20:00 +4°C° 0 mm 2 mps 727 mmHg 44%
    21:00 +4°C° 0 mm 2 mps 727 mmHg 46%
    22:00 +4°C° 0 mm 2 mps 726 mmHg 47%
    23:00 +4°C° 0 mm 2 mps 726 mmHg 49%

    18 December, Wednesday

    Time Temperature Precipitation Wind Pressure Humidity
    00:00 +4°C° 0 mm 2 mps 726 mmHg 50%
    01:00 +4°C° 0 mm 2 mps 726 mmHg 51%
    02:00 +5°C° 0 mm 1 mps 726 mmHg 52%
    03:00 +5°C° 0 mm 1 mps 725 mmHg 53%
    04:00 +5°C° 0 mm 1 mps 725 mmHg 54%
    05:00 +5°C° 0 mm 1 mps 725 mmHg 55%
    06:00 +5°C° 0 mm 1 mps 725 mmHg 56%
    07:00 +5°C° 0 mm 1 mps 725 mmHg 57%
    08:00 +5°C° 0 mm 1 mps 726 mmHg 58%
    09:00 +5°C° 0 mm 2 mps 726 mmHg 58%
    10:00 +5°C° 0 mm 3 mps 726 mmHg 57%
    11:00 +6°C° 0 mm 4 mps 727 mmHg 57%
    12:00 +6°C° 0 mm 5 mps 727 mmHg 56%
    13:00 +6°C° 0 mm 5 mps 727 mmHg 56%
    14:00 +5°C° 0 mm 6 mps 727 mmHg 55%
    15:00 +5°C° 0.1 mm 5 mps 727 mmHg 62%
    16:00 +3°C° 0.1 mm 5 mps 728 mmHg 70%
    17:00 +3°C° 0.1 mm 4 mps 728 mmHg 77%
    18:00 +3°C° 0 mm 4 mps 729 mmHg 80%
    19:00 +1°C° 0 mm 4 mps 729 mmHg 84%
    20:00 +1°C° 0 mm 4 mps 730 mmHg 87%
    21:00 +2°C° 0 mm 3 mps 730 mmHg 88%
    22:00 +1°C° 0 mm 3 mps 730 mmHg 88%
    23:00 +1°C° 0 mm 3 mps 730 mmHg 88%

    19 December, Thursday

    Time Temperature Precipitation Wind Pressure Humidity
    00:00 +2°C° 0 mm 2 mps 730 mmHg 88%
    01:00 +2°C° 0 mm 2 mps 730 mmHg 87%
    02:00 +2°C° 0 mm 1 mps 730 mmHg 87%
    03:00 +2°C° 0 mm 1 mps 730 mmHg 87%
    04:00 +2°C° 0 mm 1 mps 730 mmHg 87%
    05:00 +2°C° 0 mm 1 mps 729 mmHg 86%
    06:00 +2°C° 0 mm 1 mps 729 mmHg 84%
    07:00 +2°C° 0 mm 1 mps 729 mmHg 82%
    08:00 +2°C° 0 mm 1 mps 729 mmHg 80%
    09:00 +3°C° 0 mm 2 mps 729 mmHg 75%
    10:00 +3°C° 0 mm 3 mps 728 mmHg 69%
    11:00 +4°C° 0 mm 3 mps 728 mmHg 64%
    12:00 +5°C° 0 mm 4 mps 728 mmHg 65%
    13:00 +5°C° 0 mm 6 mps 727 mmHg 66%
    14:00 +6°C° 0 mm 7 mps 727 mmHg 68%
    15:00 +5°C° 0 mm 6 mps 726 mmHg 71%
    16:00 +5°C° 0 mm 5 mps 726 mmHg 74%
    17:00 +5°C° 0 mm 4 mps 726 mmHg 77%
    18:00 +4°C° 0 mm 4 mps 726 mmHg 77%
    19:00 +3°C° 0 mm 5 mps 726 mmHg 76%
    20:00 +3°C° 0 mm 5 mps 726 mmHg 76%
    21:00 +2°C° 0.1 mm 5 mps 726 mmHg 76%
    22:00 +2°C° 0.1 mm 5 mps 726 mmHg 77%
    23:00 +2°C° 0.1 mm 5 mps 726 mmHg 77%

    20 December, Friday

    Time Temperature Precipitation Wind Pressure Humidity
    00:00 +1°C° 0.2 mm 5 mps 726 mmHg 80%
    01:00 +1°C° 0.2 mm 5 mps 726 mmHg 83%
    02:00 0°C° 0.2 mm 5 mps 726 mmHg 86%
    03:00 0°C° 0.7 mm 5 mps 726 mmHg 89%
    04:00 0°C° 0.7 mm 5 mps 726 mmHg 92%
    05:00 -1°C° 0.7 mm 6 mps 726 mmHg 96%
    06:00 0°C° 0.6 mm 5 mps 727 mmHg 96%
    07:00 0°C° 0.6 mm 5 mps 727 mmHg 96%
    08:00 0°C° 0.6 mm 4 mps 728 mmHg 96%
    09:00 +1°C° 0.2 mm 4 mps 728 mmHg 95%
    10:00 +1°C° 0.2 mm 4 mps 729 mmHg 94%
    11:00 +1°C° 0.2 mm 4 mps 729 mmHg 92%
    12:00 +3°C° 0 mm 4 mps 729 mmHg 87%
    13:00 +4°C° 0 mm 4 mps 729 mmHg 82%
    14:00 +4°C° 0 mm 3 mps 729 mmHg 76%
    15:00 +4°C° 0 mm 3 mps 729 mmHg 78%
    16:00 +4°C° 0 mm 2 mps 729 mmHg 80%
    17:00 +5°C° 0 mm 1 mps 729 mmHg 81%
    18:00 +4°C° 0 mm 1 mps 729 mmHg 82%
    19:00 +4°C° 0 mm 1 mps 729 mmHg 82%
    20:00 +3°C° 0 mm 2 mps 729 mmHg 82%
    21:00 +2°C° 0 mm 2 mps 728 mmHg 80%
    22:00 +2°C° 0 mm 2 mps 728 mmHg 79%
    23:00 +2°C° 0 mm 2 mps 728 mmHg 77%
    Show more